TimeCST,TemperatureF,Dew PointF,Humidity,Sea Level PressureIn,VisibilityMPH,Wind Direction,Wind SpeedMPH,Gust SpeedMPH,PrecipitationIn,Events,Conditions,WindDirDegrees,DateUTC
12:15 AM,12.6,10.0,90,30.25,10.0,North,4.6,-,N/A,,Clear,360,2013-01-01 06:15:00
12:35 AM,11.8,9.1,89,30.25,10.0,North,3.5,-,N/A,,Clear,350,2013-01-01 06:35:00
12:55 AM,11.1,8.6,90,30.25,10.0,North,3.5,-,N/A,,Clear,350,2013-01-01 06:55:00
1:15 AM,10.4,7.7,89,30.25,10.0,NNW,3.5,-,N/A,,Clear,340,2013-01-01 07:15:00
1:35 AM,9.3,7.0,90,30.25,10.0,NNW,3.5,-,N/A,,Clear,330,2013-01-01 07:35:00
1:55 AM,8.2,5.9,90,30.26,10.0,Calm,Calm,-,N/A,,Clear,0,2013-01-01 07:55:00
2:15 AM,8.6,6.3,90,30.26,10.0,Calm,Calm,-,N/A,,Clear,0,2013-01-01 08:15:00
2:35 AM,7.7,5.4,90,30.26,10.0,NNW,3.5,-,N/A,,Clear,330,2013-01-01 08:35:00
2:55 AM,7.3,4.8,89,30.27,10.0,Calm,Calm,-,N/A,,Clear,0,2013-01-01 08:55:00
3:15 AM,7.0,4.5,89,30.26,10.0,Calm,Calm,-,N/A,,Clear,0,2013-01-01 09:15:00
3:35 AM,7.0,3.9,87,30.26,10.0,Calm,Calm,-,N/A,,Clear,0,2013-01-01 09:35:00
4:15 AM,4.8,1.4,86,30.27,10.0,Calm,Calm,-,N/A,,Clear,0,2013-01-01 10:15:00
4:35 AM,4.8,1.4,86,30.27,10.0,Calm,Calm,-,N/A,,Clear,0,2013-01-01 10:35:00
4:55 AM,4.8,1.4,86,30.26,10.0,Calm,Calm,-,N/A,,Clear,0,2013-01-01 10:55:00
5:15 AM,3.4,-0.0,86,30.27,10.0,West,3.5,-,N/A,,Clear,280,2013-01-01 11:15:00
5:35 AM,1.2,-2.0,86,30.26,10.0,Calm,Calm,-,N/A,,Clear,0,2013-01-01 11:35:00
5:55 AM,1.9,-1.3,86,30.26,10.0,West,3.5,-,N/A,,Clear,280,2013-01-01 11:55:00
6:15 AM,1.6,-1.3,88,30.26,10.0,Calm,Calm,-,N/A,,Clear,0,2013-01-01 12:15:00
6:35 AM,2.3,-0.8,87,30.26,10.0,Calm,Calm,-,N/A,,Clear,0,2013-01-01 12:35:00
6:55 AM,2.3,-0.8,87,30.26,10.0,Calm,Calm,-,N/A,,Clear,0,2013-01-01 12:55:00
7:15 AM,1.4,-2.2,85,30.26,10.0,Calm,Calm,-,N/A,,Clear,0,2013-01-01 13:15:00
7:35 AM,1.9,-1.3,86,30.26,10.0,Calm,Calm,-,N/A,,Clear,0,2013-01-01 13:35:00
7:55 AM,1.6,-1.1,88,30.26,10.0,NW,3.5,-,N/A,,Clear,310,2013-01-01 13:55:00
8:15 AM,0.9,-1.7,89,30.27,10.0,West,3.5,-,N/A,,Clear,280,2013-01-01 14:15:00
8:35 AM,-0.0,-2.9,88,30.28,10.0,West,3.5,-,N/A,,Clear,260,2013-01-01 14:35:00
8:55 AM,2.7,-0.0,88,30.28,10.0,Calm,Calm,-,N/A,,Clear,0,2013-01-01 14:55:00
9:15 AM,5.4,1.9,86,30.28,10.0,Calm,Calm,-,N/A,,Clear,0,2013-01-01 15:15:00
9:35 AM,5.5,1.9,85,30.29,10.0,Calm,Calm,-,N/A,,Clear,0,2013-01-01 15:35:00
9:55 AM,7.5,3.2,82,30.29,10.0,Calm,Calm,-,N/A,,Clear,0,2013-01-01 15:55:00
10:15 AM,9.3,4.3,80,30.29,10.0,Calm,Calm,-,N/A,,Clear,0,2013-01-01 16:15:00
10:35 AM,11.7,4.8,74,30.30,10.0,SSW,3.5,-,N/A,,Clear,200,2013-01-01 16:35:00
11:15 AM,13.6,6.4,73,30.29,10.0,Calm,Calm,-,N/A,,Clear,0,2013-01-01 17:15:00
11:35 AM,14.7,6.4,70,30.29,10.0,Calm,Calm,-,N/A,,Clear,0,2013-01-01 17:35:00
11:55 AM,15.4,7.7,71,30.28,10.0,SSW,3.5,-,N/A,,Clear,200,2013-01-01 17:55:00
12:15 PM,16.3,9.1,73,30.27,10.0,South,5.8,-,N/A,,Clear,180,2013-01-01 18:15:00
12:35 PM,16.9,10.0,75,30.26,10.0,South,5.8,-,N/A,,Clear,190,2013-01-01 18:35:00
12:55 PM,17.2,10.4,75,30.26,10.0,SSW,3.5,-,N/A,,Clear,200,2013-01-01 18:55:00
1:15 PM,17.6,10.4,73,30.25,10.0,SSW,3.5,-,N/A,,Clear,210,2013-01-01 19:15:00
1:35 PM,18.1,10.8,73,30.24,10.0,SSW,6.9,-,N/A,,Clear,200,2013-01-01 19:35:00
1:55 PM,18.5,11.3,73,30.23,10.0,South,8.1,-,N/A,,Clear,180,2013-01-01 19:55:00
2:15 PM,19.2,12.0,74,30.22,10.0,SSW,9.2,-,N/A,,Clear,200,2013-01-01 20:15:00
2:35 PM,19.6,12.9,75,30.21,10.0,South,10.4,-,N/A,,Clear,190,2013-01-01 20:35:00
2:55 PM,20.1,13.3,75,30.21,10.0,SSW,5.8,-,N/A,,Clear,200,2013-01-01 20:55:00
3:15 PM,20.3,14.0,77,30.20,10.0,South,6.9,-,N/A,,Clear,190,2013-01-01 21:15:00
3:35 PM,20.5,14.0,76,30.20,10.0,South,9.2,-,N/A,,Clear,170,2013-01-01 21:35:00
4:15 PM,20.1,13.5,75,30.19,10.0,South,9.2,-,N/A,,Clear,180,2013-01-01 22:15:00
4:35 PM,19.8,13.5,77,30.18,10.0,South,8.1,-,N/A,,Clear,180,2013-01-01 22:35:00
4:55 PM,19.0,13.1,78,30.17,10.0,South,6.9,-,N/A,,Clear,190,2013-01-01 22:55:00
5:15 PM,18.3,13.1,80,30.18,10.0,SSW,4.6,-,N/A,,Clear,200,2013-01-01 23:15:00
5:35 PM,18.1,13.3,81,30.17,10.0,South,5.8,-,N/A,,Clear,190,2013-01-01 23:35:00
5:55 PM,17.6,13.5,84,30.16,10.0,South,4.6,-,N/A,,Clear,190,2013-01-01 23:55:00
6:15 PM,17.4,13.5,84,30.16,10.0,South,5.8,-,N/A,,Clear,190,2013-01-02 00:15:00
6:35 PM,17.4,13.5,84,30.15,10.0,SSW,4.6,-,N/A,,Clear,200,2013-01-02 00:35:00
6:55 PM,17.2,13.6,86,30.15,10.0,SSW,6.9,-,N/A,,Clear,200,2013-01-02 00:55:00
7:15 PM,17.2,13.6,86,30.15,10.0,SSW,4.6,-,N/A,,Clear,210,2013-01-02 01:15:00
7:35 PM,17.2,13.6,86,30.14,10.0,South,5.8,-,N/A,,Clear,190,2013-01-02 01:35:00
7:55 PM,17.2,13.8,86,30.14,10.0,SSW,6.9,-,N/A,,Clear,200,2013-01-02 01:55:00
8:15 PM,16.9,13.6,87,30.13,10.0,SSW,5.8,-,N/A,,Clear,210,2013-01-02 02:15:00
8:35 PM,16.7,13.6,88,30.13,10.0,SSW,5.8,-,N/A,,Clear,200,2013-01-02 02:35:00
8:55 PM,16.5,13.5,88,30.13,10.0,SSW,8.1,-,N/A,,Clear,200,2013-01-02 02:55:00
9:15 PM,16.3,13.5,88,30.11,10.0,SSW,4.6,-,N/A,,Clear,210,2013-01-02 03:15:00
9:35 PM,16.5,13.5,88,30.11,10.0,SW,4.6,-,N/A,,Clear,230,2013-01-02 03:35:00
9:55 PM,16.3,13.5,88,30.11,10.0,Calm,Calm,-,N/A,,Clear,0,2013-01-02 03:55:00
10:15 PM,16.0,13.5,90,30.10,10.0,Calm,Calm,-,N/A,,Clear,0,2013-01-02 04:15:00
10:35 PM,15.6,13.1,90,30.10,10.0,South,4.6,-,N/A,,Clear,190,2013-01-02 04:35:00
10:55 PM,15.4,12.9,90,30.09,10.0,South,3.5,-,N/A,,Clear,180,2013-01-02 04:55:00
11:15 PM,15.6,13.6,92,30.10,10.0,Calm,Calm,-,N/A,,Clear,0,2013-01-02 05:15:00
11:35 PM,14.7,12.4,90,30.10,10.0,South,3.5,-,N/A,,Clear,180,2013-01-02 05:35:00
11:55 PM,15.6,13.6,92,30.09,10.0,South,5.8,-,N/A,,Clear,190,2013-01-02 05:55:00